Wind_Speed
3 2 1 3 3 4 3 4 6 7 9 11 12 11 10 10 11 11 11 10 10 11 13 15 16 15 12 11 10 9 8 7 7 7 6 6 5 5 5 7 9 9 8
5 4 4 4 5 5 5 4 5 6 8 9 10 10 9 9 9 10 9 9 8 9 11 14 16 16 13 11 9 8 7 8 8 7 6 4 4 3 3 3 5 7 7
6 6 6 6 6 6 6 5 5 6 6 7 8 8 8 8 8 9 9 8 8 9 11 13 15 16 14 12 9 7 5 6 7 7 6 4 3 2 2 1 1 2 4
8 8 8 8 8 8 7 7 7 6 5 5 6 7 7 7 7 8 8 8 8 9 12 13 13 14 14 13 10 7 4 3 4 5 6 7 4 3 2 1 1 1 2
10 9 9 9 9 9 8 8 8 7 7 6 6 7 7 8 8 8 8 7 8 10 11 12 12 13 13 13 12 9 5 4 4 4 5 6 6 5 4 3 2 1 1
10 10 10 10 10 9 8 8 8 9 9 10 11 10 10 10 10 10 9 9 10 11 11 11 11 11 12 12 12 10 8 6 5 5 7 6 6 5 5 5 4 3 2
9 9 10 10 10 9 9 9 10 11 13 15 16 16 15 14 14 13 12 12 12 13 13 12 12 12 12 12 12 11 9 8 6 5 7 8 8 7 6 5 5 4 4
8 8 9 9 9 11 12 14 15 17 18 20 20 20 19 19 18 18 16 15 15 16 16 15 15 15 16 15 14 14 12 11 9 7 7 10 10 10 9 7 7 6 5
10 11 12 12 13 14 15 17 18 20 21 22 23 23 23 22 22 21 20 20 20 20 20 19 19 19 19 19 18 18 17 16 13 11 10 11 10 11 11 10 9 8 6
14 16 17 17 17 18 19 20 20 21 22 23 24 23 23 24 24 23 23 23 23 23 23 24 24 23 23 23 22 22 22 22 20 17 14 14 14 12 11 10 10 10 9
19 21 23 23 23 22 22 22 21 21 22 23 23 23 23 23 24 23 23 24 25 25 26 27 27 26 25 25 25 26 26 26 25 23 21 18 18 17 15 13 11 11 11
23 25 27 28 28 26 24 23 22 22 22 21 21 22 23 24 24 23 22 23 25 26 27 29 28 28 27 27 28 28 28 28 28 28 27 24 23 22 20 17 16 14 14
30 30 31 31 29 27 25 24 23 23 22 21 21 22 24 25 25 24 22 21 22 23 25 27 29 29 28 28 28 27 27 28 29 29 29 28 28 27 26 23 21 19 18
34 36 36 34 31 28 26 25 24 23 22 22 23 24 24 25 24 23 22 22 22 21 21 22 25 26 25 25 24 24 25 24 23 24 24 27 29 30 30 29 27 24 22
36 38 39 37 34 30 28 27 25 23 23 23 24 24 24 24 24 22 22 21 22 21 19 18 19 20 21 22 22 23 23 22 22 21 22 23 25 26 28 31 31 29 27
42 41 41 41 38 34 31 29 26 24 23 23 23 24 24 24 23 23 22 22 21 20 18 18 19 19 21 22 23 24 24 24 23 24 24 24 24 24 25 28 32 33 31
45 43 41 41 43 40 34 31 27 25 25 23 23 23 22 22 22 21 20 21 20 19 18 18 19 20 21 22 23 23 24 24 24 25 25 25 25 25 25 26 30 33 33
44 44 44 42 43 40 35 31 28 25 24 23 22 21 20 20 20 19 18 18 19 19 19 19 19 21 21 22 21 20 20 21 22 23 23 24 25 25 25 26 28 31 32
43 43 41 39 38 36 33 29 24 22 23 23 23 21 19 18 18 18 17 17 18 18 18 18 20 20 20 19 17 17 17 18 19 20 21 22 23 24 25 26 27 29 31
52 48 40 36 31 28 25 21 19 20 21 22 22 21 20 18 18 18 17 16 16 16 16 17 17 18 17 16 15 15 15 15 15 16 17 18 19 21 23 25 26 27 29
52 51 46 32 21 18 16 15 16 19 20 21 22 21 21 19 19 18 17 16 15 15 15 15 15 16 16 16 15 15 15 14 13 14 15 16 17 19 22 25 27 27 28
46 44 36 26 19 18 18 18 18 19 20 19 19 19 19 19 19 18 18 17 16 15 15 15 16 17 18 18 17 16 16 15 14 13 13 14 16 18 21 25 28 29 29
40 37 35 28 25 21 20 20 20 17 16 16 17 16 16 17 17 18 18 17 17 16 16 17 17 18 20 20 20 19 18 18 17 16 15 15 15 17 20 23 26 28 28
37 36 35 32 29 25 24 24 21 19 19 18 18 16 15 16 18 18 19 19 19 19 19 19 19 20 21 23 23 22 21 19 19 20 18 16 15 17 18 21 24 26 27
38 36 34 34 34 32 31 29 26 24 24 23 22 20 19 19 20 20 21 22 22 22 22 22 22 23 24 25 26 25 24 22 20 19 21 19 17 17 18 19 21 24 26
42 40 39 39 39 39 39 37 35 33 31 31 30 28 26 25 24 24 24 24 25 25 26 25 25 26 27 27 27 27 26 25 23 20 20 21 20 19 18 19 21 23 25
Wind_Direction
221 228 273 301 307 314 333 0 10 7 1 358 0 5 9 13 17 22 25 23 16 11 11 9 7 5 3 6 15 27 33 35 36 43 49 56 65 67 69 82 93 110 129
239 246 259 272 278 284 297 324 346 352 352 353 355 1 4 5 8 10 12 14 14 8 1 358 358 357 354 351 356 8 23 32 35 35 41 47 59 72 70 77 99 114 127
247 246 251 257 263 268 278 297 316 330 340 346 352 357 359 359 358 358 355 356 1 1 358 356 356 356 356 353 347 351 5 20 29 30 28 33 48 65 72 69 108 145 146
259 254 257 260 261 264 273 289 300 308 315 329 343 348 346 344 344 343 340 338 342 348 355 359 0 2 3 3 357 345 343 351 7 13 12 20 28 30 36 29 16 319 214
265 265 269 271 270 275 282 290 293 293 297 307 318 323 321 320 322 322 319 315 315 327 341 353 359 1 3 6 8 4 349 337 331 334 342 358 5 5 1 333 305 329 338
267 266 269 270 269 273 279 285 289 292 294 298 301 302 302 301 300 300 299 294 292 302 318 332 341 345 348 352 358 3 2 353 338 320 309 313 322 329 344 347 311 278 293
276 271 270 271 272 273 275 279 285 289 292 293 294 295 293 290 289 287 285 282 279 284 298 308 314 319 324 328 331 335 338 340 340 323 299 289 285 288 297 313 333 316 281
278 271 269 272 276 279 282 286 289 290 290 289 288 288 288 286 285 284 282 277 273 274 283 292 296 300 303 305 307 308 309 311 312 314 299 283 271 269 271 277 291 310 319
274 271 273 280 284 287 290 292 292 291 290 288 287 287 286 284 283 281 279 276 273 273 276 281 284 287 290 291 293 294 294 293 292 290 285 283 275 263 260 264 270 279 291
278 278 279 284 287 291 295 297 297 297 295 292 290 289 287 284 282 280 278 275 273 272 273 275 278 280 282 283 285 287 287 286 284 280 273 270 271 266 259 258 263 266 268
283 284 284 285 287 289 293 296 297 298 298 296 294 292 290 288 286 284 280 276 274 274 274 274 276 277 278 279 280 281 283 282 280 277 270 263 263 263 258 255 257 260 261
288 287 286 285 286 288 292 295 297 300 299 298 296 295 293 291 289 287 282 278 275 274 273 273 274 275 275 277 278 278 279 279 275 273 268 260 256 256 255 254 254 255 256
290 289 285 283 284 286 290 295 298 302 300 298 297 296 294 291 288 286 281 277 275 273 274 274 274 273 273 276 278 278 278 276 275 274 269 260 253 251 250 250 251 251 253
289 287 283 281 281 283 287 291 296 299 297 295 295 295 294 291 289 286 281 277 275 275 276 277 275 271 269 270 272 272 273 275 276 275 270 262 255 253 248 247 248 250 250
287 284 279 277 277 278 281 286 290 291 292 294 296 295 293 291 291 290 285 278 274 272 272 273 272 267 264 265 267 271 274 274 272 271 269 265 261 260 254 247 246 249 250
286 279 274 269 267 266 271 274 277 280 283 288 291 292 292 291 290 288 283 277 272 268 266 267 263 259 258 259 262 265 268 270 268 268 268 265 263 262 259 251 246 246 249
280 275 270 256 253 253 257 262 267 275 279 283 287 290 292 292 293 292 287 282 274 267 264 259 256 255 256 257 259 261 264 266 268 267 266 265 262 259 257 252 247 246 248
274 272 267 251 245 243 248 254 262 273 281 289 293 295 295 297 298 296 293 285 276 269 264 256 252 253 254 256 257 260 263 267 269 269 268 267 264 261 257 252 248 246 248
280 279 269 264 247 242 243 248 258 275 285 294 298 299 298 300 301 298 294 286 278 273 267 259 254 253 254 254 254 258 263 268 271 273 272 270 268 264 260 256 252 250 248
296 299 291 281 246 242 247 252 260 277 287 293 296 297 296 295 294 292 290 285 279 275 269 262 257 254 252 250 253 258 264 270 276 278 280 280 278 272 266 261 258 255 252
305 305 304 298 270 264 271 277 278 285 286 289 292 292 287 282 281 281 280 278 277 274 269 262 257 253 250 250 254 260 266 272 281 284 285 284 281 276 269 264 261 258 255
309 311 314 315 304 304 310 310 305 298 286 282 287 287 280 272 270 269 268 268 268 265 261 258 257 255 252 249 252 256 264 274 283 290 295 292 284 276 269 264 261 259 256
312 315 319 320 324 324 326 326 322 309 291 279 280 283 279 270 264 260 259 258 259 259 255 254 256 258 257 254 254 261 269 279 287 293 297 298 294 283 273 266 262 261 258
311 316 318 318 321 320 319 319 315 306 294 281 275 275 275 271 264 258 254 251 251 252 251 251 254 258 259 261 263 267 270 275 282 290 295 297 297 290 282 273 266 262 260
308 311 313 314 314 314 312 311 306 298 291 285 278 273 271 269 265 260 257 253 251 249 249 249 251 255 258 262 267 273 276 277 279 283 290 294 295 292 287 280 270 263 260
307 308 309 308 308 307 305 303 300 295 290 286 283 277 271 267 264 261 259 258 256 253 251 251 252 255 258 262 266 272 276 280 282 282 283 288 293 294 289 279 272 264 259
Height
5921 5920 5920 5919 5919 5918 5917 5916 5915 5915 5915 5914 5914 5913 5913 5912 5911 5911 5910 5908 5907 5906 5905 5904 5903 5902 5901 5899 5898 5897 5897 5896 5896 5895 5894 5893 5893 5894 5893 5892 5891 5891 5891
5921 5919 5919 5918 5918 5918 5917 5916 5915 5915 5914 5914 5913 5912 5912 5911 5910 5909 5909 5908 5907 5906 5904 5903 5902 5900 5899 5898 5898 5897 5897 5896 5896 5895 5894 5894 5893 5894 5894 5894 5893 5893 5893
5920 5919 5918 5918 5917 5917 5916 5916 5915 5914 5913 5913 5912 5912 5911 5910 5909 5908 5908 5907 5906 5905 5904 5902 5901 5899 5898 5897 5896 5896 5896 5896 5896 5895 5894 5894 5894 5894 5894 5895 5895 5894 5894
5921 5919 5918 5917 5917 5916 5915 5915 5914 5913 5912 5912 5911 5911 5910 5909 5908 5907 5907 5906 5905 5904 5903 5901 5900 5898 5897 5896 5895 5895 5895 5895 5895 5894 5894 5894 5893 5893 5894 5894 5895 5895 5894
5921 5919 5918 5917 5916 5915 5914 5913 5912 5912 5911 5911 5910 5909 5908 5908 5907 5906 5905 5905 5904 5903 5902 5901 5899 5898 5896 5895 5894 5894 5894 5894 5894 5893 5893 5893 5893 5893 5893 5893 5893 5894 5894
5919 5918 5917 5916 5915 5914 5913 5912 5911 5910 5909 5909 5908 5907 5906 5905 5904 5903 5903 5903 5902 5901 5901 5900 5899 5897 5896 5894 5893 5893 5893 5893 5893 5892 5891 5892 5892 5892 5892 5892 5892 5892 5893
5917 5916 5915 5914 5913 5912 5911 5910 5909 5908 5907 5906 5905 5904 5902 5901 5901 5900 5900 5899 5899 5898 5898 5897 5897 5896 5895 5893 5892 5891 5891 5891 5892 5892 5890 5890 5890 5890 5890 5891 5891 5891 5891
5915 5914 5913 5911 5910 5909 5908 5907 5906 5904 5903 5902 5901 5899 5898 5897 5896 5896 5896 5895 5895 5895 5894 5894 5894 5893 5892 5891 5890 5889 5889 5889 5889 5890 5889 5887 5888 5888 5888 5889 5889 5890 5889
5913 5912 5911 5909 5908 5906 5905 5903 5902 5900 5899 5897 5896 5894 5893 5892 5891 5891 5890 5890 5890 5890 5890 5890 5889 5889 5888 5887 5887 5886 5886 5886 5886 5886 5886 5885 5885 5885 5885 5886 5887 5887 5888
5911 5910 5908 5906 5904 5902 5900 5898 5897 5895 5893 5892 5890 5889 5887 5886 5886 5885 5884 5884 5884 5884 5885 5884 5884 5884 5883 5882 5882 5881 5881 5881 5881 5882 5882 5882 5881 5881 5882 5883 5883 5885 5885
5908 5906 5905 5903 5900 5898 5895 5893 5892 5890 5888 5886 5884 5882 5881 5880 5880 5879 5878 5878 5878 5878 5878 5878 5878 5877 5877 5876 5876 5875 5875 5875 5875 5876 5877 5877 5877 5877 5878 5878 5879 5881 5882
5905 5903 5900 5898 5895 5893 5890 5889 5887 5885 5883 5881 5879 5877 5876 5875 5874 5873 5872 5872 5871 5871 5872 5871 5871 5871 5871 5870 5869 5869 5869 5868 5868 5869 5870 5871 5871 5872 5873 5873 5875 5876 5878
5901 5898 5895 5892 5890 5887 5885 5883 5881 5879 5877 5875 5874 5872 5870 5869 5868 5867 5866 5865 5865 5865 5865 5865 5865 5865 5864 5864 5863 5862 5862 5861 5861 5861 5862 5863 5865 5866 5867 5868 5869 5871 5873
5895 5891 5888 5885 5883 5881 5879 5877 5875 5873 5871 5869 5868 5866 5864 5863 5862 5861 5860 5859 5859 5859 5858 5858 5858 5857 5858 5857 5856 5855 5855 5854 5854 5855 5855 5856 5857 5858 5860 5861 5863 5865 5867
5887 5883 5880 5876 5875 5873 5872 5870 5869 5867 5865 5863 5861 5859 5857 5856 5855 5855 5854 5854 5853 5853 5853 5852 5851 5851 5851 5851 5850 5850 5849 5848 5848 5849 5849 5849 5850 5851 5852 5854 5855 5857 5860
5876 5872 5869 5865 5863 5863 5864 5863 5861 5860 5858 5856 5855 5853 5851 5849 5849 5848 5847 5847 5847 5847 5847 5847 5846 5845 5845 5845 5845 5844 5844 5843 5843 5844 5843 5844 5844 5845 5845 5846 5847 5849 5852
5862 5860 5856 5851 5848 5849 5852 5853 5852 5851 5850 5849 5848 5846 5844 5843 5842 5841 5841 5841 5841 5841 5841 5841 5841 5840 5840 5840 5840 5840 5839 5839 5838 5838 5838 5838 5838 5839 5839 5839 5840 5842 5844
5850 5846 5838 5832 5831 5833 5838 5842 5842 5842 5840 5840 5839 5838 5837 5836 5835 5834 5835 5835 5834 5834 5835 5835 5835 5835 5835 5835 5835 5835 5835 5834 5833 5832 5832 5831 5832 5832 5833 5833 5834 5836 5838
5837 5831 5823 5814 5816 5820 5827 5830 5832 5832 5832 5831 5830 5829 5829 5828 5827 5828 5828 5828 5828 5828 5828 5829 5829 5829 5830 5830 5830 5830 5830 5829 5828 5827 5826 5825 5825 5825 5826 5827 5828 5829 5831
5831 5823 5816 5809 5806 5813 5817 5819 5822 5823 5824 5824 5823 5823 5822 5821 5821 5821 5822 5822 5822 5822 5823 5823 5824 5824 5825 5825 5826 5826 5825 5825 5824 5822 5821 5820 5819 5819 5820 5821 5822 5823 5825
5828 5822 5816 5809 5807 5809 5809 5811 5814 5815 5817 5818 5818 5817 5816 5816 5816 5816 5816 5817 5817 5817 5818 5818 5819 5819 5820 5821 5822 5822 5821 5820 5819 5817 5816 5815 5814 5813 5813 5814 5816 5817 5818
5827 5821 5814 5809 5807 5806 5806 5807 5808 5808 5810 5812 5812 5811 5810 5810 5810 5810 5810 5811 5811 5811 5812 5813 5814 5814 5815 5816 5817 5817 5817 5816 5814 5813 5811 5810 5809 5808 5808 5807 5808 5810 5811
5825 5818 5814 5810 5806 5804 5803 5803 5803 5803 5804 5806 5806 5805 5804 5804 5803 5804 5804 5804 5805 5805 5806 5807 5808 5809 5809 5810 5811 5812 5812 5811 5809 5808 5807 5805 5804 5803 5802 5802 5802 5802 5804
5821 5814 5809 5804 5802 5800 5799 5798 5798 5799 5800 5800 5800 5799 5798 5798 5797 5797 5797 5798 5798 5799 5799 5800 5801 5802 5803 5804 5805 5806 5806 5806 5805 5803 5801 5800 5798 5796 5795 5795 5795 5796 5797
5815 5810 5805 5801 5798 5795 5794 5793 5793 5793 5793 5792 5792 5791 5791 5791 5790 5790 5791 5791 5791 5791 5792 5793 5794 5796 5796 5797 5798 5798 5799 5800 5800 5800 5797 5794 5793 5791 5789 5788 5788 5789 5790
5807 5803 5799 5796 5793 5790 5787 5786 5786 5785 5785 5784 5783 5783 5782 5782 5782 5783 5783 5783 5783 5783 5783 5784 5785 5787 5789 5790 5790 5791 5792 5792 5793 5793 5792 5790 5787 5785 5784 5783 5782 5782 5783